Weather in Jaunpiebalga

Latvia     57°10′37″N   26°02′04″E
temp.,
°C
wind,
m/s
gust,
m/s
humid.,
%
clouds,
%
prec.,
mm/h
press.,
hPa
HPBL,
m
22 january, sat
sat2223:00−4n41094100 0.9 1003756
02:00−4n51194100 1.5 1006798
05:00−4n51193100 0.4 1009806
08:00−4n51288100 0.6 1012881
11:00−4nnw51188100 0.2 1014781
14:00−4nnw5986100 0.3 1015883
17:00−5nnw41094100 0.4 1017735
20:00−5n4109397 0.7 1019687
23 january, sun
sun2323:00−6n3894100 0.1 1021588
02:00−7n2697100 0.3 1023300
05:00−9n13100100 0.1 102677
08:00−11ene0010099 0.1 102810
11:00−7se118453 0.0 1030119
14:00−5ssw1275100 0.0 1031233
17:00−8sw229464 0.0 103333
20:00−7ssw269153 0.0 1034120
24 january, mon
mon2423:00−7ssw398767 0.0 1035235
02:00−7ssw4108464 0.0 1035267
05:00−7sw4128271 0.0 1034306
08:00−7ssw4138132 0.0 1033308
11:00−5ssw515745 0.0 1032387
14:00−4ssw616705 0.0 1030510
17:00−5ssw61776100 0.0 1028461
20:00−4ssw61687100 0.0 1025469
25 january, tue
tue2523:00−4ssw61591100 0.0 1023544
02:00−3ssw51491100 0.1 1021528
05:00−3sw51395100 0.3 1018448
08:00−1sw41195100 0.7 1017442
11:000wnw4796100 0.4 1016547
14:00−1nw3109373 0.5 1017673
17:00−1nnw51083100 0.0 1019817
20:00−3nnw4984100 0.1 1021907
26 january, wed
wed2623:00−6nnw412886 0.1 1022580
02:00−6nnw4119287 0.1 1023534
05:00−7nnw4119495 0.0 1023498
08:00−8nw399669 0.0 1023270
11:00−6nnw36885 0.0 1023228
14:00−4wnw2380100 0.0 1020275
17:00−6ssw1393100 0.0 101877
20:00−5s2593100 0.0 1016175